BEARCAMP R @ S TAMWORTH: From 09/04/2018 16:00 to 09/19/2018 02:00

Date STAGE [FT] FLOW [CFS] PRECIPITATION INCREMENT [IN]
09/18/2018 21:00 3.64 -- 0.00
09/18/2018 20:00 3.64 25.3 0.00
09/18/2018 19:00 3.64 25.3 0.00
09/18/2018 18:00 3.64 25.4 0.00
09/18/2018 17:00 3.64 25.4 0.00
09/18/2018 16:00 3.64 25.5 0.00
09/18/2018 15:00 3.63 25.3 0.00
09/18/2018 14:00 3.64 25.3 0.00
09/18/2018 13:00 3.62 24.9 0.00
09/18/2018 12:00 3.62 24.6 0.00
09/18/2018 11:00 3.61 24.2 0.04
09/18/2018 10:00 3.62 24.0 0.07
09/18/2018 09:00 3.60 23.8 0.02
09/18/2018 08:00 3.59 24.0 0.03
09/18/2018 07:00 3.59 23.0 0.04
09/18/2018 06:00 3.57 22.5 0.00
09/18/2018 05:00 3.57 22.4 0.00
09/18/2018 04:00 3.57 21.8 0.00
09/18/2018 03:00 3.57 21.4 0.00
09/18/2018 02:00 3.57 21.4 0.00
09/18/2018 01:00 3.58 21.4 0.00
09/18/2018 00:00 3.57 21.4 0.00
09/17/2018 23:00 3.58 21.7 0.00
09/17/2018 22:00 3.58 21.6 0.00
09/17/2018 21:00 3.59 22.0 0.00
09/17/2018 20:00 3.58 22.0 0.00
09/17/2018 19:00 3.58 22.1 0.00
09/17/2018 18:00 3.59 22.1 0.00
09/17/2018 17:00 3.58 22.2 0.00
09/17/2018 16:00 3.59 22.5 0.00
09/17/2018 15:00 3.59 22.5 0.00
09/17/2018 14:00 3.59 22.5 0.00
09/17/2018 13:00 3.59 22.5 0.00
09/17/2018 12:00 3.59 22.5 0.00
09/17/2018 11:00 3.59 22.6 0.00
09/17/2018 10:00 3.60 22.6 0.00
09/17/2018 09:00 3.59 22.9 0.00
09/17/2018 08:00 3.60 23.0 0.00
09/17/2018 07:00 3.60 23.0 0.00
09/17/2018 06:00 3.60 23.1 0.00
09/17/2018 05:00 3.61 23.1 0.00
09/17/2018 04:00 3.60 23.1 0.00
09/17/2018 03:00 3.60 23.0 0.00
09/17/2018 02:00 3.60 23.0 0.00
09/17/2018 01:00 3.60 23.3 0.00
09/17/2018 00:00 3.60 23.4 0.00
09/16/2018 23:00 3.61 23.6 0.00
09/16/2018 22:00 3.61 23.6 0.00
09/16/2018 21:00 3.61 23.6 0.00
09/16/2018 20:00 3.61 23.8 0.00
09/16/2018 19:00 3.61 24.0 0.00
09/16/2018 18:00 3.62 24.2 0.00
09/16/2018 17:00 3.62 24.2 0.00
09/16/2018 16:00 3.62 24.4 0.00
09/16/2018 15:00 -- -- 0.00
09/16/2018 14:00 -- -- 0.00
09/16/2018 13:00 3.62 24.3 0.00
09/16/2018 12:00 3.63 24.4 0.00
09/16/2018 11:00 3.63 24.7 0.00
09/16/2018 10:00 3.63 24.8 0.00
09/16/2018 09:00 3.64 24.8 0.00
09/16/2018 08:00 3.63 24.9 0.00
09/16/2018 07:00 3.63 24.7 0.00
09/16/2018 06:00 3.63 25.2 0.00
09/16/2018 05:00 3.64 25.4 0.00
09/16/2018 04:00 3.65 25.4 0.00
09/16/2018 03:00 3.64 25.6 0.00
09/16/2018 02:00 3.64 25.8 0.00
09/16/2018 01:00 3.65 25.9 0.00
09/16/2018 00:00 3.65 25.9 0.00
09/15/2018 23:00 3.65 25.9 0.00
09/15/2018 22:00 3.65 26.2 0.00
09/15/2018 21:00 3.65 26.3 0.00
09/15/2018 20:00 3.66 26.5 0.00
09/15/2018 19:00 3.66 26.5 0.00
09/15/2018 18:00 3.66 26.7 0.00
09/15/2018 17:00 3.67 26.6 0.00
09/15/2018 16:00 3.67 27.1 0.00
09/15/2018 15:00 3.67 27.1 0.00
09/15/2018 14:00 3.67 27.3 0.00
09/15/2018 13:00 3.67 27.3 0.00
09/15/2018 12:00 3.67 27.2 0.00
09/15/2018 11:00 3.68 27.8 0.00
09/15/2018 10:00 3.69 27.8 0.00
09/15/2018 09:00 3.69 28.0 0.00
09/15/2018 08:00 3.69 28.4 0.00
09/15/2018 07:00 3.70 28.5 0.00
09/15/2018 06:00 3.70 28.5 0.00
09/15/2018 05:00 3.71 29.0 0.00
09/15/2018 04:00 3.71 29.0 0.00
09/15/2018 03:00 3.71 29.4 0.00
09/15/2018 02:00 3.72 29.7 0.00
09/15/2018 01:00 3.72 29.7 0.00
09/15/2018 00:00 3.72 30.1 0.00
09/14/2018 23:00 3.72 30.1 0.00
09/14/2018 22:00 3.72 30.4 0.00
09/14/2018 21:00 3.73 30.5 0.00
09/14/2018 20:00 3.73 30.7 0.00
09/14/2018 19:00 3.73 31.0 0.00
09/14/2018 18:00 3.74 31.1 0.00
09/14/2018 17:00 3.74 31.4 0.00
09/14/2018 16:00 3.74 31.7 0.00
09/14/2018 15:00 3.74 31.7 0.00
09/14/2018 14:00 3.75 31.8 0.00
09/14/2018 13:00 3.75 31.8 0.00
09/14/2018 12:00 3.75 32.1 0.00
09/14/2018 11:00 3.75 32.4 0.00
09/14/2018 10:00 3.76 32.4 0.00
09/14/2018 09:00 3.76 32.7 0.00
09/14/2018 08:00 3.76 33.2 0.00
09/14/2018 07:00 3.77 33.4 0.00
09/14/2018 06:00 3.77 33.3 0.00
09/14/2018 05:00 3.77 33.9 0.00
09/14/2018 04:00 3.78 34.0 0.00
09/14/2018 03:00 3.78 34.5 0.00
09/14/2018 02:00 3.78 34.7 0.00
09/14/2018 01:00 3.79 34.7 0.00
09/14/2018 00:00 3.79 35.0 0.00
09/13/2018 23:00 3.79 35.5 0.00
09/13/2018 22:00 3.80 35.7 0.00
09/13/2018 21:00 3.80 35.5 0.00
09/13/2018 20:00 3.80 36.2 0.00
09/13/2018 19:00 3.81 36.3 0.00
09/13/2018 18:00 3.81 36.5 0.00
09/13/2018 17:00 3.81 36.7 0.00
09/13/2018 16:00 3.81 37.0 0.00
09/13/2018 15:00 3.81 37.1 0.00
09/13/2018 14:00 3.82 37.1 0.00
09/13/2018 13:00 3.82 37.6 0.00
09/13/2018 12:00 3.83 37.9 0.00
09/13/2018 11:00 3.83 38.2 0.01
09/13/2018 10:00 3.83 38.8 0.00
09/13/2018 09:00 3.84 39.1 0.00
09/13/2018 08:00 3.84 39.4 0.00
09/13/2018 07:00 3.85 39.7 0.00
09/13/2018 06:00 3.85 39.8 0.00
09/13/2018 05:00 3.86 40.6 0.00
09/13/2018 04:00 3.86 40.6 0.00
09/13/2018 03:00 3.86 41.3 0.00
09/13/2018 02:00 3.87 41.4 0.00
09/13/2018 01:00 3.87 41.7 0.00
09/13/2018 00:00 3.89 42.3 0.00
09/12/2018 23:00 3.89 42.6 0.00
09/12/2018 22:00 3.90 43.4 0.00
09/12/2018 21:00 3.90 44.0 0.00
09/12/2018 20:00 3.91 44.7 0.00
09/12/2018 19:00 3.92 45.1 0.00
09/12/2018 18:00 3.92 46.0 0.00
09/12/2018 17:00 3.93 46.8 0.00
09/12/2018 16:00 3.94 47.0 0.00
09/12/2018 15:00 3.96 48.0 0.00
09/12/2018 14:00 3.96 49.3 0.00
09/12/2018 13:00 3.97 50.3 0.00
09/12/2018 12:00 3.98 51.0 0.00
09/12/2018 11:00 3.99 51.9 0.00
09/12/2018 10:00 4.01 53.0 0.00
09/12/2018 09:00 4.02 54.5 0.00
09/12/2018 08:00 4.03 55.8 0.00
09/12/2018 07:00 4.04 57.2 0.00
09/12/2018 06:00 4.06 58.4 0.00
09/12/2018 05:00 4.08 60.0 0.00
09/12/2018 04:00 4.08 61.4 0.00
09/12/2018 03:00 4.10 63.4 0.00
09/12/2018 02:00 4.08 64.8 0.00
09/12/2018 01:00 4.12 66.6 0.00
09/12/2018 00:00 4.13 67.5 0.00
09/11/2018 23:00 4.14 68.7 0.00
09/11/2018 22:00 4.12 70.3 0.00
09/11/2018 21:00 4.13 71.3 0.00
09/11/2018 20:00 4.14 71.8 0.00
09/11/2018 19:00 4.14 71.8 0.00
09/11/2018 18:00 4.14 71.3 0.01
09/11/2018 17:00 4.13 68.4 0.01
09/11/2018 16:00 4.10 64.2 0.01
09/11/2018 15:00 4.05 58.4 0.01
09/11/2018 14:00 4.01 54.1 0.01
09/11/2018 13:00 3.97 50.3 0.01
09/11/2018 12:00 3.94 46.9 0.01
09/11/2018 11:00 3.90 44.6 0.00
09/11/2018 10:00 3.82 42.3 0.01
09/11/2018 09:00 3.80 40.0 0.00
09/11/2018 08:00 3.83 38.1 0.04
09/11/2018 07:00 3.81 35.8 0.00
09/11/2018 06:00 3.78 33.3 0.13
09/11/2018 05:00 3.75 30.8 0.00
09/11/2018 04:00 3.70 26.4 0.00
09/11/2018 03:00 3.64 24.0 0.00
09/11/2018 02:00 3.60 22.0 0.00
09/11/2018 01:00 3.56 19.7 0.00
09/11/2018 00:00 3.53 18.6 0.03
09/10/2018 23:00 3.51 18.2 0.00
09/10/2018 22:00 3.50 17.9 0.00
09/10/2018 21:00 3.49 17.3 0.00
09/10/2018 20:00 3.47 16.3 0.00
09/10/2018 19:00 3.45 15.8 0.00
09/10/2018 18:00 3.45 15.8 --
09/10/2018 17:00 3.45 15.6 0.00
09/10/2018 16:00 3.45 15.4 0.00
09/10/2018 15:00 3.44 15.3 0.00
09/10/2018 14:00 3.44 15.3 0.00
09/10/2018 13:00 3.44 15.3 0.00
09/10/2018 12:00 3.44 15.3 0.00
09/10/2018 11:00 3.44 15.3 0.00
09/10/2018 10:00 3.44 15.4 0.00
09/10/2018 09:00 3.44 15.3 0.00
09/10/2018 08:00 3.44 15.4 0.00
09/10/2018 07:00 3.45 15.4 0.00
09/10/2018 06:00 3.45 15.6 0.00
09/10/2018 05:00 3.45 15.8 0.00
09/10/2018 04:00 3.45 15.8 0.00
09/10/2018 03:00 3.45 15.8 0.00
09/10/2018 02:00 3.45 15.8 0.00
09/10/2018 01:00 3.45 15.8 0.00
09/10/2018 00:00 3.45 15.8 0.00
09/09/2018 23:00 3.45 15.8 0.00
09/09/2018 22:00 3.45 15.8 0.00
09/09/2018 21:00 3.45 15.8 0.00
09/09/2018 20:00 3.45 15.8 0.00
09/09/2018 19:00 3.46 15.9 0.00
09/09/2018 18:00 3.46 16.1 0.00
09/09/2018 17:00 3.45 16.0 0.00
09/09/2018 16:00 3.46 16.1 0.00
09/09/2018 15:00 3.46 16.2 0.00
09/09/2018 14:00 3.45 16.1 0.00
09/09/2018 13:00 3.46 16.2 0.00
09/09/2018 12:00 3.46 16.2 0.00
09/09/2018 11:00 3.46 16.2 0.00
09/09/2018 10:00 3.46 16.2 0.00
09/09/2018 09:00 3.46 16.2 0.00
09/09/2018 08:00 3.46 16.4 0.00
09/09/2018 07:00 3.47 16.6 0.00
09/09/2018 06:00 3.47 16.7 0.00
09/09/2018 05:00 3.48 16.7 0.00
09/09/2018 04:00 3.47 16.6 0.00
09/09/2018 03:00 3.47 16.9 0.00
09/09/2018 02:00 3.48 17.1 0.00
09/09/2018 01:00 3.48 17.1 0.00
09/09/2018 00:00 3.48 17.1 0.00
09/08/2018 23:00 3.48 17.1 0.00
09/08/2018 22:00 3.48 17.1 0.00
09/08/2018 21:00 3.48 17.1 0.00
09/08/2018 20:00 3.48 17.1 0.00
09/08/2018 19:00 3.48 17.2 0.00
09/08/2018 18:00 3.48 17.3 0.00
09/08/2018 17:00 3.49 17.5 0.00
09/08/2018 16:00 3.49 17.5 0.00
09/08/2018 15:00 3.49 17.5 0.00
09/08/2018 14:00 3.49 17.5 0.00
09/08/2018 13:00 3.49 17.5 0.00
09/08/2018 12:00 3.49 17.5 0.00
09/08/2018 11:00 3.49 17.5 0.00
09/08/2018 10:00 3.49 17.6 0.00
09/08/2018 09:00 3.50 17.8 0.00
09/08/2018 08:00 3.50 18.0 0.00
09/08/2018 07:00 3.50 18.0 0.00
09/08/2018 06:00 3.50 18.2 0.00
09/08/2018 05:00 3.51 18.4 0.00
09/08/2018 04:00 3.51 18.4 0.00
09/08/2018 03:00 3.51 18.5 0.00
09/08/2018 02:00 3.51 18.5 0.00
09/08/2018 01:00 3.52 18.9 0.00
09/08/2018 00:00 3.52 18.9 0.00
09/07/2018 23:00 3.52 19.0 0.00
09/07/2018 22:00 3.52 19.0 0.00
09/07/2018 21:00 3.52 19.3 0.00
09/07/2018 20:00 3.53 19.4 0.00
09/07/2018 19:00 3.53 19.5 0.00
09/07/2018 18:00 3.54 19.9 0.00
09/07/2018 17:00 3.54 19.9 0.00
09/07/2018 16:00 3.54 20.0 0.00
09/07/2018 15:00 3.55 20.4 0.00
09/07/2018 14:00 3.55 20.5 0.00
09/07/2018 13:00 3.56 20.5 0.00
09/07/2018 12:00 3.56 20.5 0.00
09/07/2018 11:00 3.55 20.4 0.00
09/07/2018 10:00 3.55 20.8 0.00
09/07/2018 09:00 3.56 20.9 0.00
09/07/2018 08:00 3.56 20.9 0.00
09/07/2018 07:00 3.56 20.9 0.00
09/07/2018 06:00 3.56 20.9 0.00
09/07/2018 05:00 3.56 20.9 --
09/07/2018 04:00 3.56 20.6 0.00
09/07/2018 03:00 3.55 20.5 0.00
09/07/2018 02:00 3.56 20.5 0.00
09/07/2018 01:00 3.55 20.4 0.00
09/07/2018 00:00 3.55 20.4 0.00
09/06/2018 23:00 3.55 20.4 0.00
09/06/2018 22:00 3.55 20.4 0.00
09/06/2018 21:00 3.55 20.3 0.00
09/06/2018 20:00 3.54 19.8 0.00
09/06/2018 19:00 3.53 19.4 0.00
09/06/2018 18:00 3.53 19.4 0.00
09/06/2018 17:00 3.53 19.2 0.00
09/06/2018 16:00 3.52 18.9 0.00
09/06/2018 15:00 3.52 18.9 0.00
09/06/2018 14:00 3.54 18.9 0.00
09/06/2018 13:00 3.50 19.0 0.00
09/06/2018 12:00 3.50 19.7 0.00
09/06/2018 11:00 3.50 18.2 0.00
09/06/2018 10:00 3.50 18.0 0.00
09/06/2018 09:00 3.50 18.0 0.00
09/06/2018 08:00 3.50 18.0 0.00
09/06/2018 07:00 3.51 18.1 0.00
09/06/2018 06:00 3.51 18.1 0.00
09/06/2018 05:00 3.51 18.4 0.00
09/06/2018 04:00 3.51 18.4 0.00
09/06/2018 03:00 3.51 18.4 0.00
09/06/2018 02:00 3.51 18.4 0.00
09/06/2018 01:00 3.51 18.4 0.00
09/06/2018 00:00 3.51 18.4 0.00
09/05/2018 23:00 3.51 18.4 0.00
09/05/2018 22:00 3.51 18.4 0.00
09/05/2018 21:00 3.51 18.4 0.00
09/05/2018 20:00 3.51 -- 0.00
09/05/2018 19:00 -- -- 0.00
09/05/2018 18:00 -- -- 0.00
09/05/2018 17:00 -- -- 0.00
09/05/2018 16:00 -- -- 0.00
09/05/2018 15:00 -- -- 0.00
09/05/2018 14:00 -- -- 0.00
09/05/2018 13:00 -- -- 0.00
09/05/2018 12:00 3.52 -- 0.00
09/05/2018 11:00 3.52 18.9 0.00
09/05/2018 10:00 3.52 19.0 0.00
09/05/2018 09:00 3.53 19.0 0.00
09/05/2018 08:00 3.53 19.1 0.00
09/05/2018 07:00 3.53 19.4 0.00
09/05/2018 06:00 3.53 19.4 0.00
09/05/2018 05:00 3.54 19.5 0.00
09/05/2018 04:00 3.54 19.4 0.00
09/05/2018 03:00 3.53 19.7 0.00
09/05/2018 02:00 3.54 19.9 0.00
09/05/2018 01:00 3.54 19.9 0.00
09/05/2018 00:00 3.54 19.9 --
09/04/2018 23:00 72.06 19.9 0.00
09/04/2018 22:00 3.55 19.9 0.00
09/04/2018 21:00 -- -- --
09/04/2018 20:00 -- -- --
09/04/2018 19:00 -- -- --
09/04/2018 18:00 -- -- --
09/04/2018 17:00 -- -- --
09/04/2018 16:00 -- -- --